CAPE
0 0 0 0 0 0 0 0 0 0 0 0 0 0 1 0 0 0 0 0 0 0 0 0 0 0 0 0 0 0 0 0 0 0 0 0 0 5 2 23 39 2 0 12 27 82 16
0 0 0 0 0 0 0 0 0 0 1 1 0 0 0 1 0 0 0 0 0 0 0 0 0 0 0 0 0 0 0 0 0 0 0 0 0 0 11 3 8 0 0 23 27 15 79
0 0 0 0 0 0 0 0 1 1 1 1 0 0 0 0 0 0 0 0 0 0 0 0 0 0 0 0 0 0 0 0 0 0 0 0 0 0 6 20 0 0 0 5 14 40 80
0 0 0 0 0 0 0 0 1 1 1 1 0 0 1 0 0 0 0 0 0 0 0 0 0 0 0 0 0 0 0 0 0 0 0 0 0 0 0 1 0 0 10 5 0 0 77
1 0 0 0 0 0 0 1 1 1 1 1 1 1 1 1 0 0 0 0 0 0 0 0 0 0 0 0 0 0 0 0 0 0 0 0 0 0 0 0 0 2 16 12 0 0 52
0 1 1 0 0 0 0 1 1 1 1 1 0 1 1 1 0 0 0 0 0 0 0 0 0 0 0 0 0 0 0 0 0 0 0 0 0 0 0 10 2 17 1 7 7 0 1
1 1 1 1 1 1 0 0 1 1 1 1 0 1 1 1 0 0 0 0 0 0 0 0 0 0 0 0 0 0 0 0 0 0 0 0 0 0 0 1 26 8 0 0 0 0 0
0 1 1 1 1 1 1 1 1 1 1 1 1 0 1 1 0 0 0 0 0 0 0 0 0 0 0 0 0 0 0 0 0 0 0 15 0 1 0 0 0 0 0 6 2 0 0
1 0 0 1 1 1 1 1 1 1 1 1 0 2 1 0 0 0 0 0 0 0 0 0 0 0 0 0 0 0 0 0 0 0 1 1 36 6 2 0 0 0 0 15 5 0 0
1 1 0 0 0 0 1 1 1 1 1 1 1 2 1 0 0 0 0 0 0 0 0 0 0 0 0 0 0 0 0 0 0 0 0 4 26 10 5 0 0 2 2 0 0 0 0
1 1 1 1 1 1 1 1 1 1 1 1 1 1 1 0 0 0 0 0 0 0 0 0 0 0 0 0 0 0 0 0 0 0 0 6 0 2 0 1 0 0 0 0 0 0 0
1 1 1 2 1 1 0 1 1 1 1 2 2 2 0 0 0 0 0 0 0 0 0 0 0 0 0 0 0 0 0 0 0 0 0 0 0 0 0 0 0 0 0 0 0 0 0
1 1 1 1 1 1 1 1 1 1 1 2 2 1 0 0 0 0 0 0 0 0 0 0 0 0 0 0 0 0 0 0 0 0 0 0 0 0 0 0 0 0 0 0 0 0 0
0 1 1 1 1 1 1 1 1 1 1 2 1 0 0 0 0 0 0 0 0 0 0 0 0 0 0 0 0 0 0 0 0 0 0 0 0 0 0 0 0 0 0 0 1 5 1
0 2 1 1 1 1 1 1 1 1 2 2 0 0 0 0 0 0 0 0 0 0 5 0 0 0 0 0 0 0 0 0 0 0 0 10 0 0 0 0 0 0 0 0 0 0 23
0 0 2 1 1 1 1 0 1 1 2 0 0 1 0 0 0 0 0 0 0 10 60 0 0 0 0 0 0 0 0 0 0 0 0 0 6 1 0 0 0 0 0 0 0 0 28
0 0 0 2 1 1 1 0 1 1 0 0 0 43 0 0 0 0 0 0 0 21 28 7 0 0 0 0 0 0 0 0 0 0 0 0 63 25 7 0 0 0 0 0 1 51 45
0 0 0 0 2 2 1 1 0 0 0 0 5 156 0 0 0 0 0 0 0 3 24 6 50 11 0 12 0 15 37 3 0 0 0 0 6 67 2 83 27 27 1 32 19 90 14
0 0 0 0 0 0 0 0 0 0 2 0 250 114 0 0 0 0 0 0 7 0 9 15 42 71 7 29 0 56 10 0 0 3 63 50 169 32 5 9 53 109 100 61 32 18 46
0 0 0 0 0 0 0 0 0 0 1 0 258 40 0 0 0 34 32 3 25 0 14 14 40 57 58 39 5 51 0 0 0 3 0 1 103 71 9 0 2 24 57 70 2 0 0
0 0 0 0 0 0 0 0 0 0 0 0 110 515 39 0 0 69 92 77 7 53 132 77 81 139 74 1 61 120 40 0 0 0 0 0 63 72 5 1 0 15 18 52 40 1 0
0 0 0 0 0 0 0 0 0 0 0 2 466 279 365 156 0 60 73 60 50 122 43 47 181 143 343 45 56 57 82 10 0 0 16 30 87 66 73 31 18 37 71 44 0 0 0
0 0 0 0 0 0 0 0 0 0 0 262 166 264 508 390 74 0 10 6 4 87 200 170 181 193 71 8 0 0 0 0 148 68 21 0 12 151 257 148 108 78 122 12 0 0 0
0 0 0 0 0 0 0 0 0 0 0 0 89 47 467 732 329 37 10 68 108 21 294 300 49 5 4 0 0 10 0 2 3 0 0 72 55 28 35 0 0 15 6 0 0 0 0
0 0 0 0 0 0 0 0 0 0 0 0 0 4 323 687 753 249 111 37 46 127 285 167 33 0 14 1 46 49 35 7 0 0 0 0 0 0 0 0 0 2 8 0 0 0 0
0 0 0 0 0 0 0 0 0 0 0 0 0 0 0 356 570 266 117 32 5 56 255 133 26 38 46 112 51 27 115 104 20 85 74 0 0 0 0 0 0 0 0 0 0 0 15
0 0 0 0 0 0 0 0 0 0 0 0 0 0 0 59 361 190 248 203 336 334 152 184 142 105 76 52 50 34 61 80 46 25 31 0 0 0 0 0 0 2 1 0 0 55 6
0 0 0 0 0 0 0 0 0 0 0 0 0 0 0 0 23 35 21 119 215 287 179 155 61 47 40 21 0 6 18 11 21 3 0 0 0 0 0 6 16 1 0 20 260 141 63
0 0 0 0 0 0 0 0 0 0 0 0 0 0 0 0 0 0 0 0 13 90 24 67 165 212 115 5 0 0 0 1 25 0 0 0 0 0 0 306 202 31 54 8 95 120 85
CIN
0 0 0 0 0 0 0 0 0 0 0 0 0 0 0 0 0 0 0 0 0 0 0 0 0 0 0 0 0 0 0 0 0 0 0 0 0 -17 -8 -20 -5 -3 0 -1 -2 -44 -6
0 0 0 0 0 0 0 0 0 0 0 0 0 0 0 0 0 0 0 0 0 0 0 0 0 0 0 0 0 0 0 0 0 0 0 0 0 0 -36 -8 -30 -1 0 -4 -2 -5 -50
0 0 0 0 0 0 0 0 0 0 0 0 0 0 0 0 0 0 0 0 0 0 0 0 0 0 0 0 0 0 0 0 0 0 0 0 0 0 -6 -5 0 0 0 -4 -2 -4 -57
0 0 0 0 0 0 0 0 0 0 0 0 0 0 0 0 0 0 0 0 0 0 0 0 0 0 0 0 0 0 0 0 0 0 0 0 0 0 -1 -1 0 0 -12 -4 0 0 -103
0 0 0 0 0 0 0 0 0 0 0 0 -1 0 0 0 0 0 0 0 0 0 0 0 0 0 0 0 0 0 0 0 0 0 0 0 0 0 -1 0 0 -2 -13 -7 0 0 -5
0 0 0 0 0 0 0 0 0 0 0 0 0 0 0 0 0 0 0 0 0 0 0 0 0 0 0 0 0 0 0 0 0 0 0 0 0 0 0 -11 -13 -5 -4 -4 -3 0 0
0 0 0 0 0 0 0 0 0 0 0 0 0 -1 0 0 0 0 0 0 0 0 0 0 0 0 0 0 0 0 0 0 0 0 0 0 0 0 0 -2 -41 -17 -12 0 0 0 0
0 0 0 0 0 0 0 0 0 0 0 0 -1 -1 0 0 0 0 0 0 0 0 0 0 0 0 0 0 0 0 0 0 0 0 0 -8 0 -37 0 -4 0 0 0 -3 -4 0 0
0 0 0 0 0 0 0 0 0 0 0 0 0 0 0 0 0 0 0 0 0 0 0 0 0 0 0 0 0 0 0 0 0 0 -2 -4 -25 -4 -3 0 0 0 -1 -12 -8 0 0
0 0 0 0 0 0 0 0 0 0 0 0 0 0 0 0 0 0 0 0 0 0 0 0 0 0 0 0 0 0 0 0 0 0 0 -8 -20 -14 -28 0 0 -26 -1 -2 0 0 0
0 0 0 0 0 0 0 0 0 0 0 0 0 0 0 0 0 0 0 0 0 0 0 0 0 0 0 0 0 0 0 0 0 0 0 -3 -4 -10 0 -3 0 -3 0 0 0 0 0
0 0 0 0 0 0 0 0 0 0 0 0 0 0 0 0 0 0 0 0 0 0 0 0 0 0 0 0 0 0 0 0 0 0 0 0 0 0 0 0 0 0 0 0 0 0 0
0 0 0 0 0 0 0 0 0 0 0 0 0 0 0 0 0 0 0 0 0 0 0 0 0 0 0 0 0 0 0 0 0 0 0 0 0 0 0 0 0 0 0 0 0 0 0
0 0 0 0 0 0 0 0 0 0 0 0 0 0 0 0 0 0 0 0 0 0 0 0 0 0 0 0 0 0 0 0 0 0 0 0 0 0 0 0 0 0 0 0 -1 -25 -2
0 0 0 0 0 0 0 0 0 0 0 0 0 0 0 0 0 0 0 0 0 0 -26 0 0 0 0 0 0 0 0 0 0 0 0 -7 -6 0 0 0 0 0 0 0 0 0 -4
0 0 0 0 0 0 0 0 0 0 0 0 0 -110 0 0 0 0 0 0 0 -12 -10 0 0 0 0 0 0 0 0 0 0 0 0 0 -7 -5 0 0 0 0 0 0 0 0 -15
0 0 -1 0 0 0 0 0 0 0 0 0 0 -208 0 0 0 0 0 0 0 -16 -20 -4 0 0 0 0 0 -1 0 0 0 0 0 0 -6 -34 -24 0 0 0 0 0 -9 -6 -11
0 0 0 0 0 0 0 0 0 0 0 0 -28 -60 -4 0 0 0 0 0 -1 -15 -17 -30 -16 -5 0 -5 0 -6 -4 -6 0 0 0 0 -37 -9 -3 -24 -17 -6 -2 -4 -6 -26 -37
0 0 0 0 0 0 0 0 0 0 0 0 -102 -76 0 0 0 0 0 0 -18 -8 -10 -36 -5 -12 -9 -8 -3 -2 -53 0 0 -67 -39 -13 -7 -60 -87 -37 -69 -71 -54 -6 -12 -17 -7
0 0 0 0 0 0 0 0 0 0 0 0 -142 -69 0 0 0 -35 -12 -12 -9 0 -18 -6 -17 -12 -4 -14 -6 -37 -2 0 0 -72 0 -9 -8 -34 -163 0 -89 -160 -71 -16 -10 0 0
0 0 0 0 0 0 0 0 0 0 0 0 -118 -4 -39 0 0 -70 -9 -10 -8 -4 -12 -13 -10 -6 -3 -3 -4 -3 -32 0 0 0 0 0 -29 -90 -22 -39 0 -199 -86 -45 -3 -1 0
0 0 0 0 0 0 0 0 0 0 0 -420 -13 -26 -37 -4 -13 -50 -79 -16 -5 -10 -17 -17 -15 -12 -46 -228 -216 -214 -58 -24 -1 -1 -91 -65 -18 -57 -38 -77 -94 -115 -15 -12 0 0 0
0 0 0 0 0 0 0 0 0 0 0 -186 -222 -167 -87 -24 -5 -4 -19 -37 -16 -63 -6 -3 -21 -113 -136 -140 0 0 0 0 -25 -14 -62 0 -16 -12 -6 -16 -31 -59 -16 -13 0 0 0
0 0 0 0 0 0 0 0 0 0 0 0 -344 -367 -108 -22 -6 -19 -23 -21 -7 -289 -45 -57 -132 -28 -89 0 0 -70 0 -14 -19 0 0 -6 -34 -27 -39 0 0 -14 -37 0 0 0 0
0 0 0 0 0 0 0 0 0 0 0 0 -14 -75 -209 -97 -26 -5 -33 -33 -6 -20 -21 -23 -222 0 -17 -19 -38 -91 -17 -45 0 0 0 0 0 0 0 0 0 -2 -9 0 0 0 0
0 0 0 0 0 0 0 0 0 0 0 0 0 0 0 -167 -8 -4 -7 -6 -38 -13 -15 -43 -68 -84 -47 -3 -5 -11 -4 -5 -9 -6 -7 0 0 0 0 0 0 0 0 0 0 0 -25
0 0 0 0 0 0 0 0 0 0 0 0 0 0 0 -221 -50 -74 -30 -46 -22 -14 -6 -20 -45 -29 -31 -23 -5 -6 -10 -6 -4 -5 -21 0 0 0 0 0 0 -10 -11 0 0 -23 -101
0 0 0 0 0 0 0 0 0 0 0 0 0 0 0 0 -130 -173 -207 -139 -127 -75 -81 -23 -64 -43 -42 -43 0 -1 -4 -4 -3 -7 0 0 0 0 0 -3 -4 -14 0 -13 -64 -45 -61
0 0 0 0 0 0 0 0 0 0 0 0 0 0 0 0 0 0 0 0 -81 -211 -190 -63 -20 -37 -52 -39 0 0 0 -1 -5 0 0 0 0 0 0 -17 -92 -116 -92 -150 -56 -86 -86
Wind_Speed
24 24 24 23 23 23 23 23 23 23 22 22 23 23 24 25 25 25 25 25 24 24 23 23 23 23 21 25 24 14 19 23 23 23 21 18 17 15 20 13 14 15 13 16 17 19 20
24 24 24 24 23 23 23 23 23 23 23 23 23 24 25 25 26 26 26 26 25 25 24 23 23 23 23 28 18 16 22 23 26 24 23 21 17 13 17 10 12 12 13 14 16 17 12
25 24 24 24 24 24 24 23 24 24 24 24 24 24 25 26 26 27 27 26 26 25 24 23 23 23 27 31 22 20 24 26 27 24 22 19 18 20 22 17 10 13 13 14 15 15 16
25 25 25 25 25 24 24 24 24 24 25 25 25 25 25 25 26 27 27 27 26 26 25 24 23 23 27 26 33 30 27 29 27 26 24 21 21 21 18 20 5 16 12 10 14 12 17
26 25 25 25 25 25 25 25 25 25 25 25 25 26 25 25 25 26 27 27 27 26 25 23 22 6 24 17 29 32 30 30 28 28 26 23 22 23 23 23 17 13 10 9 11 14 12
26 26 26 25 25 25 25 25 26 26 26 26 26 26 25 25 25 25 25 26 23 24 21 23 22 20 19 17 7 35 33 31 28 28 27 26 25 24 23 25 18 12 14 12 10 10 9
26 26 26 26 26 26 26 26 26 26 26 26 26 26 25 25 24 23 21 16 16 18 20 12 9 15 14 19 9 32 34 30 26 27 30 30 28 26 16 15 16 21 9 10 11 11 11
27 26 26 26 26 26 26 26 26 26 26 26 27 26 25 25 24 23 21 17 20 22 25 23 25 21 18 14 5 27 31 21 28 29 31 30 33 13 25 13 15 21 15 13 9 9 10
26 27 26 26 26 26 27 27 27 27 27 27 27 26 25 23 23 22 21 29 23 22 23 18 23 23 19 21 22 24 15 26 25 30 33 28 30 24 21 19 23 23 23 11 20 9 11
26 26 27 27 27 27 27 28 28 29 29 29 28 26 24 22 19 21 25 26 27 21 21 5 19 24 23 22 24 27 24 25 30 30 32 31 32 23 20 23 26 18 21 14 13 23 7
26 26 27 27 27 28 28 29 29 30 30 30 29 26 24 20 21 17 14 15 18 17 17 9 13 7 19 24 17 24 28 31 30 28 29 28 28 28 26 25 26 18 20 22 21 26 24
27 27 27 27 28 28 28 29 30 30 31 31 29 26 22 17 21 26 20 17 17 15 18 4 1 10 16 26 9 15 23 30 27 28 28 29 26 31 25 31 30 14 18 25 13 18 24
27 28 28 29 28 28 29 30 30 30 31 31 28 25 15 22 17 20 21 20 16 20 3 5 6 15 18 21 14 13 23 26 28 25 27 25 22 24 30 15 12 29 25 22 8 5 7
29 29 29 29 29 29 29 30 30 31 31 29 26 21 16 21 22 22 22 20 23 20 19 1 4 11 18 14 11 19 19 25 29 28 6 7 4 11 14 29 12 15 30 29 26 24 34
28 27 27 27 28 29 30 30 30 30 30 27 24 17 18 22 29 24 24 28 21 27 19 4 5 7 25 10 8 7 27 27 26 29 29 20 16 11 11 1 30 28 33 30 34 32 22
27 27 27 27 28 28 28 28 28 29 28 24 19 17 15 9 7 23 27 39 32 26 17 3 10 7 11 5 28 3 16 27 29 24 30 26 17 9 10 7 1 25 32 30 26 30 29
27 27 26 27 27 27 27 27 28 29 27 22 16 15 4 6 10 27 34 35 30 24 22 21 20 18 29 6 17 10 16 16 22 12 29 26 18 18 17 14 30 4 34 32 33 26 27
27 27 26 26 27 28 27 27 28 28 25 15 18 19 5 2 23 32 36 37 29 24 25 23 25 14 32 6 20 27 5 9 7 12 17 29 25 3 28 25 26 21 25 25 28 24 32
27 26 27 27 26 26 26 26 26 25 21 19 17 13 10 14 28 32 36 35 23 27 30 28 23 26 30 8 21 21 7 7 4 15 14 18 17 17 22 27 23 20 25 28 27 29 24
26 26 27 27 27 26 26 25 24 23 20 17 18 12 12 27 34 30 33 33 22 30 28 35 28 26 29 18 17 4 16 15 11 13 17 19 20 12 11 26 35 27 24 24 24 27 30
25 26 27 27 27 26 25 24 23 23 20 18 20 21 19 25 34 32 31 32 31 27 25 22 26 30 24 32 11 17 8 3 9 13 16 20 9 11 12 10 20 19 20 23 25 27 30
25 26 26 27 26 26 25 24 23 23 20 19 21 17 17 22 33 31 26 26 27 29 25 26 30 27 11 9 13 17 12 8 9 12 15 19 21 6 5 5 10 26 23 30 32 33 35
26 26 26 27 26 25 24 24 23 23 18 19 19 20 20 22 25 33 30 25 32 19 29 22 24 23 15 10 13 12 16 29 11 10 10 19 23 16 26 9 5 17 6 22 23 25 26
27 26 25 25 26 24 24 23 22 21 19 19 20 20 22 24 25 29 33 35 25 19 23 14 9 7 20 8 26 6 15 15 13 17 20 15 19 24 27 28 30 30 19 20 25 28 27
27 26 25 24 24 24 23 23 22 21 20 19 19 18 20 22 22 29 19 26 20 19 28 10 12 16 17 15 6 2 1 21 22 21 18 22 21 23 27 31 32 31 24 17 17 22 12
28 27 26 25 24 24 23 23 23 22 22 19 20 18 20 21 15 19 20 22 23 27 28 21 14 18 19 23 23 16 21 20 18 12 18 18 22 25 29 31 35 34 15 14 15 25 10
28 28 27 27 26 25 24 24 23 23 22 21 22 19 22 25 20 19 19 20 22 22 28 21 20 20 21 26 26 26 25 17 22 24 24 27 24 25 27 29 23 19 12 13 20 17 13
28 28 28 27 27 26 25 24 24 23 22 21 23 20 20 25 28 23 22 22 21 18 14 18 18 23 24 25 28 28 25 27 23 22 25 29 32 28 28 25 17 20 16 20 15 13 13
27 27 27 28 28 28 27 26 25 24 23 22 22 22 24 26 30 28 30 29 26 21 20 20 18 18 19 23 23 26 30 29 25 30 24 29 23 26 24 20 15 19 17 16 13 13 15
Wind_Direction
335 331 329 325 323 320 318 316 314 312 309 303 295 287 282 279 276 275 273 270 267 266 265 263 265 269 268 231 233 287 251 231 230 227 228 258 261 265 201 63 29 38 14 45 53 62 47
334 332 330 328 323 319 316 315 313 311 309 305 297 289 284 278 276 275 271 267 264 263 261 259 265 267 241 219 244 269 237 232 226 229 237 249 277 263 218 270 336 10 26 51 85 61 21
330 329 328 326 324 320 318 314 313 310 308 305 298 290 284 279 274 272 267 264 260 259 256 254 262 271 229 203 248 259 239 229 230 239 246 262 249 250 257 268 15 65 69 67 37 58 28
328 326 324 323 322 319 317 316 311 309 305 303 299 292 284 279 274 271 265 260 257 255 252 249 255 262 234 208 229 239 234 226 230 234 236 256 252 243 211 202 152 133 123 345 23 61 69
324 321 320 319 317 316 315 313 311 308 304 301 296 293 285 278 275 270 263 259 253 252 241 243 256 87 218 288 212 227 226 225 228 229 238 247 240 227 225 195 132 130 354 14 32 118 85
322 319 316 315 313 311 311 311 310 306 304 301 296 292 286 280 275 271 261 251 270 267 271 230 215 224 198 175 189 212 216 222 230 230 233 220 217 217 194 189 274 314 310 328 26 28 292
320 317 314 312 311 310 309 309 307 306 302 301 296 291 285 278 274 273 274 292 294 293 190 143 69 145 25 158 220 193 205 219 235 235 224 201 217 212 309 274 271 254 342 1 9 17 352
319 316 314 310 308 308 306 304 301 299 298 296 295 291 285 277 270 269 270 276 279 275 263 190 206 177 232 269 88 221 212 240 233 231 218 228 218 296 243 295 260 258 299 322 6 23 101
318 316 313 310 307 305 305 303 301 299 298 297 293 289 285 280 272 267 260 224 277 274 264 190 174 184 170 168 161 154 220 231 237 227 217 236 226 247 263 274 260 263 259 324 299 59 122
316 315 313 310 309 307 305 304 304 301 300 299 295 287 283 280 280 267 247 235 237 262 274 91 151 177 166 147 171 160 154 202 226 234 221 238 213 255 260 268 237 259 272 323 322 279 328
315 314 312 310 308 307 306 305 304 303 301 299 295 289 282 275 273 270 296 272 258 262 288 111 125 241 129 150 110 150 158 184 197 211 231 243 238 253 262 251 238 296 273 287 290 246 213
317 314 313 311 310 308 307 306 304 303 300 298 293 286 287 285 269 242 263 262 250 267 281 73 38 115 121 169 94 113 143 186 208 212 223 231 245 228 255 227 231 313 290 240 268 190 222
319 317 317 315 312 310 309 307 306 304 301 298 291 280 295 271 269 259 249 245 253 251 71 114 120 129 133 140 114 115 145 163 186 220 186 203 252 234 207 163 285 231 250 278 320 157 162
323 321 317 315 314 311 309 308 307 306 303 295 289 290 291 263 260 254 241 241 243 253 257 341 147 132 139 123 111 133 139 165 192 194 76 126 329 135 156 234 286 273 215 251 286 297 271
321 317 312 312 312 312 312 311 308 305 303 292 280 290 283 258 232 243 234 231 233 233 196 265 167 150 166 127 252 114 176 186 180 198 220 238 190 141 154 140 246 255 246 257 266 259 298
318 318 316 314 313 312 308 306 305 305 299 289 295 280 286 282 259 237 235 220 229 267 252 220 230 228 250 151 221 143 147 194 201 175 209 232 227 136 136 131 175 228 248 275 263 276 290
318 318 317 316 314 311 309 308 308 306 299 281 287 278 355 280 255 233 228 225 236 251 247 224 236 245 228 246 249 278 265 266 188 288 216 230 273 265 281 306 237 302 242 249 261 295 302
316 318 317 317 317 316 313 311 310 310 304 294 262 262 323 252 237 228 222 223 256 252 239 247 239 246 218 257 253 236 280 301 290 293 274 222 285 312 264 276 224 270 238 272 270 301 290
315 316 318 319 316 313 312 310 309 310 310 269 271 297 285 249 231 223 221 232 267 241 235 233 247 226 223 270 251 243 277 313 323 282 296 283 302 290 285 272 285 278 284 273 275 282 297
310 315 318 320 319 316 314 311 308 305 294 260 257 298 273 233 227 243 231 238 257 236 243 223 234 233 227 252 245 262 283 272 290 296 298 288 306 324 332 271 263 267 289 287 287 286 295
303 310 315 319 319 317 314 312 308 305 291 249 241 251 250 235 221 227 240 242 228 232 241 236 236 232 232 203 253 264 120 65 304 300 296 276 325 343 5 98 164 186 268 249 283 294 292
297 305 310 315 317 317 315 314 311 309 293 240 255 242 254 243 222 226 247 243 230 225 233 232 230 240 273 292 286 268 286 281 290 303 297 275 280 12 353 48 176 202 225 255 282 285 284
296 302 307 312 314 315 315 315 315 317 296 257 284 274 250 251 232 228 231 240 226 251 228 233 242 273 264 252 311 307 320 230 228 321 320 285 278 316 280 332 341 201 230 312 312 311 307
294 297 300 305 310 311 313 313 313 313 313 262 269 269 245 244 244 230 219 220 249 278 250 263 281 309 289 307 258 183 269 197 296 288 286 313 301 292 286 295 288 296 330 323 311 306 301
291 292 294 297 300 306 309 310 310 306 301 270 258 269 249 241 255 230 252 249 259 257 233 295 266 262 146 110 298 20 234 291 290 297 299 301 302 298 292 282 285 296 326 328 337 327 342
289 290 293 296 297 299 304 306 306 305 303 280 254 271 256 251 291 265 259 250 246 239 243 270 288 272 280 260 267 291 287 292 309 325 309 311 311 302 296 293 285 288 336 346 350 325 357
290 291 292 295 298 298 299 302 304 303 301 288 258 281 261 253 275 283 271 263 271 267 254 265 273 277 279 267 266 274 280 313 292 287 286 296 308 305 306 303 315 331 340 347 322 330 356
290 292 293 295 297 298 298 299 300 300 299 294 254 286 280 264 251 273 268 266 266 279 292 273 272 271 272 272 270 277 287 292 299 303 301 294 291 299 304 308 309 332 333 316 335 343 349
295 292 293 295 297 298 298 300 299 298 295 289 245 286 279 266 253 270 259 261 261 273 277 280 292 285 291 277 286 285 281 290 300 290 310 300 303 302 313 320 331 330 333 346 355 347 346